カタログに戻る

THORAD DELTA 1 DEB

運用中SSO
NORAD 42599·DEBRIS·🇺🇸 United States

打ち上げ Nov 15, 1974 から Vandenberg Space Force Base

Loading…

次のパス (今後24時間)

TLE

最新Source: Space-Track

元期: Sep 14, 2026, 13:38 UTC

1 42599U 74089FQ  26257.56860334  .00000369  00000-0  22683-2 0  9995
2 42599 101.5442 356.0289 0050641 303.7262  67.6159 12.63423233577822

AllMySatでTHORAD DELTA 1 DEBをリアルタイム追跡

Download on the App Store